[[{"header":{"parameterUnit":"m.s-1","parameterCategory":1,"la1":30.2991,"la2":30.254,"lo1":-89.0895,"lo2":-89.0444,"dy":0.0017,"dx":0.0017,"nx":28,"ny":28,"refTime":"2025-05-31T03:00:00:Z","depth":0,"parameterNumber":2,"parameterNumberName":"U-component_of_WINDS"},"data":[0,0,0,0,0,0,0,0,0,0,0,0,0,0,0,0,0,0,0,0,0,0,0,0,0,0,0,0,0,0,0,0,0,0,0,0,0,0,0,0,0,0,0,0,0,0,0,0,0,0,0,0,0,0,0,0,0,0,-3.0862,-3.0862,0,-3.0903,-3.0904,-3.0904,-3.0923,-3.0923,-3.0923,-3.0923,-3.096,-3.0961,-3.0962,0,0,0,0,0,0,0,0,0,0,0,0,0,-3.0794,-3.0795,-3.0861,-3.0862,-3.0863,-3.0903,-3.0904,-3.0904,-3.0923,-3.0923,-3.0923,-3.0923,-3.096,-3.0961,-3.0962,0,0,0,0,0,0,0,0,0,0,0,0,0,-3.0828,-3.0796,-3.0861,-3.0877,-3.0879,-3.0903,-3.0904,-3.0905,-3.0923,-3.0923,-3.0923,-3.0923,-3.096,-3.0961,-3.0963,-3.0974,0,0,-3.0967,-3.0968,0,0,0,0,0,0,0,0,-3.0826,-3.0831,-3.0874,-3.0876,-3.0878,-3.0908,-3.0894,-3.0928,-3.0923,-3.0906,-3.0923,-3.0923,-3.0943,-3.0946,-3.0953,-3.0975,-3.0977,-3.0968,-3.0969,-3.0969,-3.097,0,0,0,0,0,0,0,-3.0824,-3.0829,-3.0878,-3.0875,-3.0877,-3.088,-3.0885,-3.09,-3.0924,-3.0907,-3.0909,-3.0914,-3.0944,-3.0952,-3.0954,-3.0978,-3.0968,-3.0969,-3.097,-3.0971,-3.1013,-3.1013,0,0,0,0,0,0,-3.082,-3.0827,-3.0877,-3.0879,-3.0852,-3.0882,-3.0887,-3.0898,-3.0924,-3.0928,-3.0914,-3.0914,-3.0949,-3.0953,-3.0956,-3.0971,-3.0969,-3.0971,-3.0972,-3.1012,-3.1013,-3.1013,0,0,0,0,0,0,-3.0818,-3.0824,-3.0875,-3.0854,-3.086,-3.0883,-3.0895,-3.0899,-3.0907,-3.0929,-3.0933,-3.0918,-3.0949,-3.0954,-3.097,-3.0973,-3.0971,-3.0973,-3.1012,-3.1012,-3.1013,-3.1002,0,0,0,0,0,0,-3.0816,-3.0823,-3.0828,-3.0854,-3.0861,-3.0889,-3.0896,-3.09,-3.0911,-3.0912,-3.0934,-3.0937,-3.095,-3.0967,-3.0971,-3.0975,-3.0974,-3.1012,-3.1012,-3.1013,-3.1002,-3.1002,-3.1001,0,0,0,0,0,-3.0814,-3.0822,-3.0828,-3.0834,-3.0868,-3.0889,-3.0894,-3.0909,-3.0911,-3.0916,-3.093,-3.0937,-3.0972,-3.0969,-3.0974,-3.0978,-3.1012,-3.1012,-3.1013,-3.1002,-3.1002,-3.1001,0,0,0,0,0,0,-3.0793,-3.0825,-3.0833,-3.085,-3.0867,-3.0892,-3.0899,-3.0908,-3.0923,-3.0923,-3.0941,-3.0945,-3.096,-3.0971,-3.0966,-3.0991,-3.0993,-3.0994,-3.0983,-3.0983,-3.0983,-3.0979,-3.0975,0,0,0,0,0,-3.0791,-3.0807,-3.0834,-3.0846,-3.0855,-3.0875,-3.0885,-3.0896,-3.0913,-3.092,-3.0935,-3.0951,-3.0966,-3.0975,-3.099,-3.1004,-3.1009,-3.1009,-3.1009,-3.1009,-3.1009,-3.1018,-3.1019,-3.1014,-3.1014,-3.1014,0,0,-3.0786,-3.0806,-3.0814,-3.0842,-3.0857,-3.0872,-3.0881,-3.0896,-3.0907,-3.0922,-3.0939,-3.0951,-3.0969,-3.0985,-3.0993,-3.0994,-3.1012,-3.1009,-3.1009,-3.1009,-3.1019,-3.1019,-3.102,-3.1014,-3.1014,-3.1014,0,0,-3.0785,-3.0801,-3.0814,-3.083,-3.0853,-3.0867,-3.087,-3.0895,-3.0904,-3.0922,-3.0934,-3.0947,-3.0972,-3.0986,-3.0995,-3.1003,-3.101,-3.1007,-3.1005,-3.1014,-3.1014,-3.1014,-3.1017,-3.1018,-3.1008,-3.1008,-3.1008,0,-3.0774,-3.0799,-3.0819,-3.0834,-3.0847,-3.0864,-3.0877,-3.089,-3.0916,-3.0924,-3.0926,-3.0959,-3.0973,-3.0992,-3.0995,-3.1002,-3.1006,-3.1004,-3.1013,-3.1013,-3.1014,-3.1017,-3.1018,-3.1007,-3.1007,-3.1007,-3.1007,0,-3.0786,-3.0803,-3.0811,-3.0839,-3.0852,-3.0866,-3.0887,-3.0898,-3.0908,-3.0922,-3.0941,-3.0958,-3.0978,-3.0983,-3.0992,-3.1005,-3.1005,-3.101,-3.1012,-3.1014,-3.1017,-3.1018,-3.1006,-3.1007,-3.1007,-3.1007,0,0,-3.077,-3.0811,-3.0813,-3.0827,-3.0856,-3.0868,-3.0884,-3.0905,-3.0914,-3.0932,-3.0945,-3.0968,-3.0973,-3.0984,-3.0996,-3.1003,-3.1009,-3.1007,-3.1008,-3.1007,-3.1024,-3.102,-3.1021,-3.1014,-3.1015,-3.1015,-3.1022,0,-3.0772,-3.0802,-3.0821,-3.0843,-3.0859,-3.0877,-3.0891,-3.0909,-3.0923,-3.0938,-3.0953,-3.0969,-3.0975,-3.0982,-3.0991,-3.1006,-3.1012,-3.1006,-3.1025,-3.1026,-3.1019,-3.1022,-3.1017,-3.1023,-3.1023,-3.1024,-3.1024,0,-3.0777,-3.0798,-3.0822,-3.0851,-3.0859,-3.0871,-3.0893,-3.0908,-3.0929,-3.0939,-3.0954,-3.0966,-3.0982,-3.0984,-3.1007,-3.1002,-3.1011,-3.102,-3.1021,-3.1022,-3.1024,-3.1023,-3.1025,-3.1026,-3.1026,-3.1026,-3.1025,0,-3.0763,-3.0797,-3.0816,-3.0827,-3.0862,-3.087,-3.0884,-3.0906,-3.0918,-3.0938,-3.0946,-3.0966,-3.0976,-3.0991,-3.1008,-3.1008,-3.1029,-3.1032,-3.1037,-3.1036,-3.1039,-3.1038,-3.1042,-3.1046,-3.1046,-3.1046,-3.1046,0,-3.0762,-3.0776,-3.0811,-3.0822,-3.0839,-3.0862,-3.0877,-3.0892,-3.0912,-3.0927,-3.0943,-3.0956,-3.0978,-3.0994,-3.1007,-3.1024,-3.1028,-3.1036,-3.1039,-3.1034,-3.1033,-3.104,-3.1039,-3.1046,-3.1046,-3.1046,-3.1046,0,-3.0748,-3.0772,-3.0794,-3.0827,-3.0835,-3.0846,-3.0873,-3.0884,-3.0901,-3.0919,-3.0925,-3.095,-3.0969,-3.0989,-3.1013,-3.1023,-3.1039,-3.1044,-3.1032,-3.1034,-3.1037,-3.1036,-3.1044,-3.1047,-3.105,-3.105,-3.105,0,-3.0745,-3.0757,-3.0792,-3.0805,-3.082,-3.0838,-3.0852,-3.0876,-3.0889,-3.0917,-3.0925,-3.0946,-3.0964,-3.0994,-3.1014,-3.1033,-3.1038,-3.104,-3.1041,-3.1036,-3.1038,-3.1037,-3.1038,-3.1039,-3.1038,-3.1038,-3.1038,0,-3.0738,-3.0751,-3.0771,-3.0797,-3.0814,-3.0834,-3.0855,-3.0863,-3.0891,-3.0905,-3.0927,-3.0941,-3.0969,-3.0989,-3.1012,-3.1025,-3.1036,-3.1038,-3.104,-3.1034,-3.1027,-3.1031,-3.103,-3.1037,-3.1038,-3.1038,-3.1038,-3.1038,-3.073,-3.0742,-3.0769,-3.0792,-3.0811,-3.0831,-3.0845,-3.0864,-3.0884,-3.091,-3.0922,-3.0944,-3.0967,-3.0999,-3.1013,-3.1029,-3.1032,-3.1034,-3.1035,-3.1035,-3.1034,-3.1026,-3.1033,-3.1033,-3.1033,-3.1033,-3.1033,0,-3.0723,-3.0743,-3.0764,-3.0795,-3.0813,-3.0825,-3.085,-3.0863,-3.0883,-3.0905,-3.0924,-3.0949,-3.097,-3.0993,-3.1015,-3.1024,-3.1029,-3.1029,-3.1028,-3.1031,-3.103,-3.1027,-3.1024,-3.1024,-3.1024,-3.1024,-3.1024,-3.1024,-3.0722,-3.0744,-3.076,-3.0791,-3.081,-3.0834,-3.0847,-3.0865,-3.0883,-3.0912,-3.0931,-3.0946,-3.0969,-3.0993,-3.1013,-3.1019,-3.1026,-3.1024,-3.1031,-3.103,-3.103,-3.1031,-3.1027,-3.1025,-3.1025,-3.103,-3.103,-3.103]},{"header":{"parameterUnit":"m.s-1","parameterCategory":1,"la1":30.2991,"la2":30.254,"lo1":-89.0895,"lo2":-89.0444,"dy":0.0017,"dx":0.0017,"nx":28,"ny":28,"refTime":"2025-05-31T03:00:00:Z","depth":0,"parameterNumber":3,"parameterNumberName":"V-component_of_WINDS"},"data":[0,0,0,0,0,0,0,0,0,0,0,0,0,0,0,0,0,0,0,0,0,0,0,0,0,0,0,0,0,0,0,0,0,0,0,0,0,0,0,0,0,0,0,0,0,0,0,0,0,0,0,0,0,0,0,0,0,0,-1.9821,-1.9823,0,-2.0017,-2.0019,-2.0022,-2.0126,-2.0127,-2.0127,-2.0127,-2.0329,-2.0335,-2.034,0,0,0,0,0,0,0,0,0,0,0,0,0,-1.9538,-1.9543,-1.9821,-1.9823,-1.9826,-2.0017,-2.002,-2.0022,-2.0126,-2.0127,-2.0127,-2.0127,-2.0328,-2.0334,-2.034,0,0,0,0,0,0,0,0,0,0,0,0,0,-1.969,-1.9544,-1.9821,-1.9901,-1.991,-2.0016,-2.002,-2.0023,-2.0126,-2.0127,-2.0127,-2.0127,-2.0326,-2.0333,-2.0341,-2.0383,0,0,-2.0365,-2.0368,0,0,0,0,0,0,0,0,-1.9681,-1.97,-1.9887,-1.9895,-1.9906,-2.0048,-1.9994,-2.0144,-2.0126,-2.0044,-2.0127,-2.0127,-2.0236,-2.0251,-2.0287,-2.0393,-2.0401,-2.0366,-2.037,-2.0374,-2.0376,0,0,0,0,0,0,0,-1.9671,-1.9693,-1.9899,-1.9889,-1.9901,-1.9927,-1.9949,-2.0023,-2.0136,-2.0051,-2.0059,-2.0081,-2.0241,-2.0279,-2.0292,-2.0404,-2.0365,-2.0372,-2.0377,-2.038,-2.0554,-2.0554,0,0,0,0,0,0,-1.9647,-1.9683,-1.9893,-1.9905,-1.9792,-1.9932,-1.9957,-2.0002,-2.0135,-2.0156,-2.0081,-2.0085,-2.0266,-2.0283,-2.03,-2.0358,-2.0374,-2.0381,-2.0385,-2.0554,-2.0554,-2.0554,0,0,0,0,0,0,-1.9641,-1.9665,-1.9885,-1.9796,-1.9826,-1.9937,-1.9986,-2.0006,-2.0044,-2.0157,-2.0178,-2.0099,-2.0267,-2.0289,-2.0362,-2.0366,-2.0384,-2.0391,-2.0555,-2.0554,-2.0554,-2.0474,0,0,0,0,0,0,-1.9632,-1.9662,-1.9678,-1.9796,-1.983,-1.9942,-1.9987,-2.0009,-2.0057,-2.0065,-2.018,-2.0199,-2.0269,-2.0349,-2.0369,-2.0378,-2.0398,-2.0555,-2.0555,-2.0554,-2.0477,-2.0471,-2.0466,0,0,0,0,0,-1.9621,-1.9648,-1.9679,-1.9704,-1.9854,-1.9942,-1.9962,-2.0041,-2.0057,-2.0075,-2.0148,-2.0196,-2.0363,-2.0356,-2.0379,-2.039,-2.0555,-2.0555,-2.0554,-2.0479,-2.0472,-2.0466,0,0,0,0,0,0,-1.953,-1.9665,-1.97,-1.9766,-1.9842,-1.996,-1.9985,-2.0031,-2.0104,-2.0108,-2.0203,-2.0228,-2.0292,-2.0349,-2.0338,-2.0438,-2.0464,-2.0468,-2.0398,-2.0393,-2.0388,-2.0373,-2.0404,0,0,0,0,0,-1.9517,-1.9577,-1.9693,-1.9739,-1.9775,-1.9873,-1.9915,-1.9968,-2.0051,-2.0084,-2.0162,-2.024,-2.0311,-2.0355,-2.0426,-2.0485,-2.0512,-2.0504,-2.0499,-2.0494,-2.0497,-2.0533,-2.053,-2.0554,-2.0554,-2.0554,0,0,-1.9492,-1.9573,-1.9605,-1.9723,-1.9788,-1.9848,-1.9899,-1.9961,-2.0007,-2.0093,-2.0166,-2.0226,-2.032,-2.0386,-2.0419,-2.0435,-2.0497,-2.0494,-2.049,-2.0495,-2.0532,-2.053,-2.0528,-2.0554,-2.0554,-2.0554,0,0,-1.9476,-1.9544,-1.959,-1.9653,-1.9751,-1.9816,-1.9826,-1.9938,-1.9981,-2.0055,-2.0121,-2.0177,-2.0296,-2.0361,-2.0409,-2.0417,-2.0464,-2.0437,-2.041,-2.0444,-2.0442,-2.0441,-2.0443,-2.0443,-2.044,-2.044,-2.0439,0,-1.9432,-1.9525,-1.9608,-1.9666,-1.9715,-1.9795,-1.9843,-1.9901,-2.0017,-2.0049,-2.0066,-2.0217,-2.0286,-2.0368,-2.0369,-2.0406,-2.0421,-2.0424,-2.0435,-2.0435,-2.0435,-2.0439,-2.0439,-2.0436,-2.0436,-2.0437,-2.0437,0,-1.9466,-1.953,-1.9555,-1.9664,-1.9717,-1.9769,-1.986,-1.9904,-1.9953,-2.0016,-2.0091,-2.0176,-2.0266,-2.0289,-2.0339,-2.0378,-2.0385,-2.0417,-2.0445,-2.0428,-2.0433,-2.0435,-2.043,-2.0431,-2.0433,-2.0434,0,0,-1.9398,-1.9551,-1.9559,-1.9609,-1.9722,-1.9773,-1.983,-1.9916,-1.9952,-2.0029,-2.0078,-2.0177,-2.0207,-2.0262,-2.0319,-2.0348,-2.0349,-2.0377,-2.0381,-2.0368,-2.0398,-2.0372,-2.0373,-2.0381,-2.0381,-2.0382,-2.039,0,-1.9398,-1.9501,-1.9577,-1.9652,-1.9711,-1.9788,-1.9837,-1.9912,-1.9973,-2.0032,-2.01,-2.0168,-2.0203,-2.0236,-2.0269,-2.0341,-2.0356,-2.0342,-2.0428,-2.043,-2.0401,-2.0375,-2.0349,-2.0352,-2.0392,-2.0393,-2.0393,0,-1.9412,-1.9485,-1.9565,-1.9671,-1.9699,-1.9742,-1.9827,-1.9883,-1.997,-2.0012,-2.0073,-2.0131,-2.0194,-2.0217,-2.0305,-2.0294,-2.0334,-2.0375,-2.0377,-2.0387,-2.041,-2.0385,-2.0356,-2.0355,-2.0397,-2.0397,-2.0396,0,-1.9353,-1.9472,-1.9535,-1.9576,-1.9702,-1.973,-1.9784,-1.9871,-1.9918,-1.9993,-2.0025,-2.0106,-2.0151,-2.0213,-2.0292,-2.0301,-2.0372,-2.0401,-2.0409,-2.0407,-2.042,-2.0418,-2.0396,-2.0446,-2.0446,-2.0446,-2.0446,0,-1.9345,-1.9391,-1.9511,-1.9549,-1.9603,-1.969,-1.9741,-1.9802,-1.9878,-1.993,-2.0003,-2.005,-2.0152,-2.0213,-2.0276,-2.0339,-2.0359,-2.0395,-2.0411,-2.0388,-2.0383,-2.0415,-2.0416,-2.0447,-2.0447,-2.0447,-2.0447,0,-1.9288,-1.937,-1.9444,-1.9557,-1.9586,-1.9621,-1.9718,-1.9759,-1.9823,-1.9888,-1.9909,-2.001,-2.0085,-2.017,-2.0273,-2.0316,-2.0374,-2.0398,-2.0344,-2.0353,-2.0356,-2.0354,-2.0353,-2.0358,-2.0404,-2.0404,-2.0403,0,-1.9277,-1.9314,-1.943,-1.947,-1.9521,-1.9584,-1.9633,-1.972,-1.9768,-1.9869,-1.9898,-1.9978,-2.0046,-2.0162,-2.0245,-2.0325,-2.0351,-2.0345,-2.0363,-2.0339,-2.035,-2.0346,-2.0351,-2.0339,-2.0338,-2.0338,-2.0337,0,-1.9248,-1.9287,-1.9353,-1.9433,-1.9488,-1.9556,-1.9627,-1.9656,-1.9758,-1.9808,-1.9884,-1.9937,-2.0042,-2.0121,-2.0211,-2.0268,-2.0319,-2.0331,-2.0337,-2.0313,-2.028,-2.0298,-2.033,-2.033,-2.0331,-2.0331,-2.0332,-2.0332,-1.9214,-1.925,-1.9337,-1.9408,-1.947,-1.9535,-1.9578,-1.9648,-1.9713,-1.9805,-1.9853,-1.9929,-2.0015,-2.0141,-2.0196,-2.0257,-2.0274,-2.0283,-2.0285,-2.0286,-2.0279,-2.0271,-2.0274,-2.0274,-2.0274,-2.0275,-2.0275,0,-1.9188,-1.9247,-1.9312,-1.9408,-1.9465,-1.9508,-1.9589,-1.9633,-1.9698,-1.9774,-1.984,-1.9928,-2.0005,-2.0094,-2.0176,-2.0208,-2.0234,-2.0227,-2.0225,-2.0237,-2.0259,-2.0245,-2.0205,-2.0205,-2.0205,-2.0205,-2.0205,-2.0205,-1.9181,-1.9243,-1.9292,-1.9387,-1.9448,-1.9521,-1.9564,-1.9624,-1.9685,-1.9779,-1.9843,-1.99,-1.9982,-2.0071,-2.0143,-2.0168,-2.0195,-2.018,-2.0211,-2.023,-2.0236,-2.0241,-2.0229,-2.0185,-2.0185,-2.0185,-2.0185,-2.0185]}]]